• In Russia
  • List of Countries
  • For 7 days
  • Water Temperature
  • Satellite Maps
  • Weather Map
  • Weather Widgets
  • user-avatar
    Login

    Hourly Weather Konstantyna

    Today, 23 January, Wednesday

    Time Temperature Precipitation Wind Pressure Humidity
    00:00 +3°C° 0 mm 2 mps 702 mmHg 81%
    01:00 +3°C° 0 mm 2 mps 701 mmHg 80%
    02:00 +2°C° 0 mm 2 mps 701 mmHg 79%
    03:00 +2°C° 0 mm 2 mps 700 mmHg 77%
    04:00 +2°C° 0 mm 2 mps 700 mmHg 78%
    05:00 +2°C° 0 mm 2 mps 700 mmHg 79%
    06:00 +2°C° 0 mm 2 mps 699 mmHg 80%
    07:00 +2°C° 0.1 mm 3 mps 699 mmHg 77%
    08:00 +3°C° 0.1 mm 4 mps 699 mmHg 74%
    09:00 +5°C° 0.1 mm 5 mps 699 mmHg 71%
    10:00 +6°C° 0 mm 5 mps 699 mmHg 67%
    11:00 +6°C° 0 mm 5 mps 699 mmHg 64%
    12:00 +7°C° 0 mm 6 mps 698 mmHg 60%
    13:00 +7°C° 0 mm 5 mps 698 mmHg 61%
    14:00 +7°C° 0 mm 5 mps 697 mmHg 61%
    15:00 +7°C° 0 mm 5 mps 696 mmHg 62%
    16:00 +7°C° 0.9 mm 5 mps 696 mmHg 69%
    17:00 +5°C° 0.9 mm 6 mps 695 mmHg 76%
    18:00 +4°C° 0.9 mm 6 mps 694 mmHg 82%
    19:00 +4°C° 1.4 mm 6 mps 694 mmHg 85%
    20:00 +4°C° 1.4 mm 6 mps 694 mmHg 87%
    21:00 +4°C° 1.4 mm 6 mps 694 mmHg 90%
    22:00 +4°C° 1.5 mm 7 mps 694 mmHg 88%
    23:00 +3°C° 1.5 mm 9 mps 694 mmHg 86%

    Tomorrow, 24 January, Thursday

    Time Temperature Precipitation Wind Pressure Humidity
    00:00 +3°C° 1.5 mm 10 mps 694 mmHg 84%
    01:00 +2°C° 3.2 mm 9 mps 694 mmHg 87%
    02:00 +1°C° 3.2 mm 8 mps 694 mmHg 89%
    03:00 0°C° 3.2 mm 7 mps 694 mmHg 92%
    04:00 0°C° 0.7 mm 7 mps 694 mmHg 88%
    05:00 0°C° 0.7 mm 7 mps 693 mmHg 85%
    06:00 -1°C° 0.7 mm 8 mps 693 mmHg 81%
    07:00 0°C° 0 mm 9 mps 694 mmHg 79%
    08:00 0°C° 0 mm 10 mps 694 mmHg 76%
    09:00 +1°C° 0 mm 11 mps 695 mmHg 74%
    10:00 0°C° 0 mm 12 mps 695 mmHg 71%
    11:00 0°C° 0 mm 13 mps 695 mmHg 68%
    12:00 +1°C° 0 mm 14 mps 695 mmHg 65%
    13:00 0°C° 0.3 mm 14 mps 695 mmHg 71%
    14:00 0°C° 0.3 mm 13 mps 696 mmHg 77%
    15:00 -1°C° 0.3 mm 12 mps 696 mmHg 84%
    16:00 -1°C° 0.3 mm 11 mps 696 mmHg 86%
    17:00 -1°C° 0.3 mm 11 mps 697 mmHg 88%
    18:00 0°C° 0.3 mm 10 mps 697 mmHg 90%
    19:00 0°C° 0.3 mm 10 mps 698 mmHg 89%
    20:00 0°C° 0.3 mm 10 mps 699 mmHg 89%
    21:00 0°C° 0.3 mm 9 mps 700 mmHg 88%
    22:00 0°C° 0.2 mm 9 mps 700 mmHg 87%
    23:00 0°C° 0.2 mm 9 mps 700 mmHg 87%

    Day after tomorrow, 25 January, Friday

    Time Temperature Precipitation Wind Pressure Humidity
    00:00 -1°C° 0.2 mm 9 mps 700 mmHg 86%
    01:00 -1°C° 0 mm 8 mps 700 mmHg 87%
    02:00 -1°C° 0 mm 7 mps 700 mmHg 88%
    03:00 -2°C° 0 mm 6 mps 700 mmHg 89%
    04:00 -2°C° 0.1 mm 6 mps 700 mmHg 89%
    05:00 -1°C° 0.1 mm 6 mps 701 mmHg 89%
    06:00 -1°C° 0.1 mm 6 mps 701 mmHg 89%
    07:00 -1°C° 0.1 mm 7 mps 701 mmHg 87%
    08:00 0°C° 0.1 mm 9 mps 702 mmHg 84%
    09:00 0°C° 0.1 mm 10 mps 703 mmHg 82%
    10:00 +1°C° 0.2 mm 10 mps 703 mmHg 79%
    11:00 +1°C° 0.2 mm 10 mps 703 mmHg 76%
    12:00 +2°C° 0.2 mm 11 mps 703 mmHg 74%
    13:00 +2°C° 0.5 mm 9 mps 702 mmHg 75%
    14:00 +2°C° 0.5 mm 8 mps 702 mmHg 77%
    15:00 +2°C° 0.5 mm 6 mps 702 mmHg 79%
    16:00 +2°C° 1 mm 5 mps 701 mmHg 83%
    17:00 +3°C° 1 mm 3 mps 701 mmHg 87%
    18:00 +3°C° 1 mm 2 mps 701 mmHg 90%
    19:00 +3°C° 0.8 mm 2 mps 701 mmHg 92%
    20:00 +2°C° 0.8 mm 3 mps 702 mmHg 93%
    21:00 +1°C° 0.8 mm 3 mps 702 mmHg 94%
    22:00 0°C° 0.2 mm 4 mps 702 mmHg 94%
    23:00 0°C° 0.2 mm 5 mps 702 mmHg 93%

    26 January, Saturday

    Time Temperature Precipitation Wind Pressure Humidity
    00:00 -1°C° 0.2 mm 6 mps 703 mmHg 93%
    01:00 -1°C° 0.1 mm 7 mps 703 mmHg 92%
    02:00 -1°C° 0.1 mm 8 mps 703 mmHg 91%
    03:00 -1°C° 0.1 mm 8 mps 703 mmHg 90%
    04:00 -1°C° 0.1 mm 8 mps 703 mmHg 90%
    05:00 -1°C° 0.1 mm 8 mps 704 mmHg 91%
    06:00 -1°C° 0.1 mm 8 mps 704 mmHg 91%
    07:00 -1°C° 0.1 mm 8 mps 705 mmHg 90%
    08:00 0°C° 0.1 mm 8 mps 705 mmHg 89%
    09:00 0°C° 0.1 mm 9 mps 706 mmHg 88%
    10:00 +1°C° 0.1 mm 9 mps 706 mmHg 87%
    11:00 +1°C° 0.1 mm 8 mps 706 mmHg 85%
    12:00 +2°C° 0.1 mm 8 mps 707 mmHg 83%
    13:00 +2°C° 0 mm 8 mps 707 mmHg 82%
    14:00 +2°C° 0 mm 8 mps 707 mmHg 80%
    15:00 +3°C° 0 mm 7 mps 707 mmHg 79%
    16:00 +2°C° 0 mm 6 mps 707 mmHg 82%
    17:00 +1°C° 0 mm 4 mps 707 mmHg 85%
    18:00 +2°C° 0 mm 2 mps 707 mmHg 88%
    19:00 +2°C° 0 mm 2 mps 707 mmHg 88%
    20:00 +1°C° 0 mm 3 mps 707 mmHg 88%
    21:00 +1°C° 0 mm 3 mps 707 mmHg 88%
    22:00 +1°C° 0 mm 3 mps 707 mmHg 87%
    23:00 0°C° 0 mm 3 mps 706 mmHg 87%

    27 January, Sunday

    Time Temperature Precipitation Wind Pressure Humidity
    00:00 0°C° 0 mm 3 mps 706 mmHg 86%
    01:00 0°C° 0 mm 3 mps 705 mmHg 84%
    02:00 0°C° 0 mm 3 mps 705 mmHg 83%
    03:00 0°C° 0 mm 3 mps 704 mmHg 81%
    04:00 +1°C° 0 mm 3 mps 704 mmHg 79%
    05:00 +1°C° 0 mm 3 mps 703 mmHg 78%
    06:00 +1°C° 0 mm 3 mps 703 mmHg 76%
    07:00 +3°C° 0 mm 4 mps 703 mmHg 76%
    08:00 +4°C° 0 mm 4 mps 703 mmHg 76%
    09:00 +5°C° 0 mm 5 mps 703 mmHg 75%
    10:00 +6°C° 0.1 mm 5 mps 703 mmHg 76%
    11:00 +6°C° 0.1 mm 4 mps 703 mmHg 78%
    12:00 +7°C° 0.1 mm 4 mps 703 mmHg 79%
    13:00 +7°C° 0.2 mm 4 mps 702 mmHg 79%
    14:00 +7°C° 0.2 mm 4 mps 702 mmHg 79%
    15:00 +6°C° 0.2 mm 4 mps 702 mmHg 80%
    16:00 +7°C° 0.1 mm 3 mps 702 mmHg 84%
    17:00 +6°C° 0.1 mm 2 mps 702 mmHg 88%
    18:00 +6°C° 0.1 mm 1 mps 702 mmHg 92%
    19:00 +5°C° 0.3 mm 1 mps 702 mmHg 92%
    20:00 +5°C° 0.3 mm 1 mps 702 mmHg 92%
    21:00 +4°C° 0.3 mm 2 mps 702 mmHg 92%
    22:00 +3°C° 0.1 mm 2 mps 701 mmHg 91%
    23:00 +3°C° 0.1 mm 2 mps 701 mmHg 91%

    28 January, Monday

    Time Temperature Precipitation Wind Pressure Humidity
    00:00 +3°C° 0.1 mm 2 mps 701 mmHg 90%
    01:00 +1°C° 0 mm 3 mps 700 mmHg 90%
    02:00 +1°C° 0 mm 3 mps 700 mmHg 89%
    03:00 +1°C° 0 mm 3 mps 700 mmHg 88%
    04:00 +1°C° 0.2 mm 3 mps 700 mmHg 89%
    05:00 +2°C° 0.2 mm 2 mps 700 mmHg 90%
    06:00 +2°C° 0.2 mm 2 mps 700 mmHg 91%
    07:00 +3°C° 0.3 mm 2 mps 700 mmHg 87%
    08:00 +3°C° 0.3 mm 3 mps 700 mmHg 83%
    09:00 +3°C° 0.3 mm 3 mps 700 mmHg 80%
    10:00 +4°C° 0.2 mm 4 mps 700 mmHg 74%
    11:00 +5°C° 0.2 mm 5 mps 700 mmHg 68%
    12:00 +5°C° 0.2 mm 6 mps 700 mmHg 63%
    13:00 +4°C° 0.3 mm 6 mps 700 mmHg 65%
    14:00 +4°C° 0.3 mm 6 mps 700 mmHg 67%
    15:00 +3°C° 0.3 mm 6 mps 699 mmHg 69%
    16:00 +3°C° 0.3 mm 4 mps 700 mmHg 75%
    17:00 +2°C° 0.3 mm 3 mps 700 mmHg 81%
    18:00 +2°C° 0.3 mm 2 mps 700 mmHg 88%
    19:00 +2°C° 0.2 mm 2 mps 701 mmHg 88%
    20:00 +1°C° 0.2 mm 2 mps 701 mmHg 89%
    21:00 +2°C° 0.2 mm 1 mps 701 mmHg 89%
    22:00 -1°C° 0 mm 2 mps 701 mmHg 88%
    23:00 -1°C° 0 mm 2 mps 701 mmHg 88%
    Show more